MSC Jordan — HPMK — position and weather

sailwx.info

Track history (hours):
 
Tides and Currents Weather Stations Pressure Air Temp Water Temp Dewpoint Dewpoint Depression Visibility Wind Speed Wind Dir Waves Ship Positions

MSC Jordan

Last reported at 2014-Sep-17 07:32 UTC. Time now 2014-Sep-17 07:36 UTC.
Position N 51°20' E 004°20'.

Length 237 m; draft 8.3 m.

Type: Ship. MMSI: 355194000.

Date/timePositionNaut miles runAvg speedWind from/ knotsBaromVisibWave heightAir tempDewpointWater temp
2014-Sep-17 07:32N 51°20' E 004°20'0 0.0
2014-Sep-17 06:32N 51°20' E 004°20'0 0.0
2014-Sep-17 05:32N 51°20' E 004°20'0 0.0
2014-Sep-17 04:33N 51°20' E 004°20'0 0.0
2014-Sep-17 03:31N 51°20' E 004°20'0 0.0
2014-Sep-17 02:31N 51°20' E 004°20'0 0.0
2014-Sep-17 01:31N 51°20' E 004°20'0 0.0
2014-Sep-17 00:28N 51°20' E 004°20'0 0.0
2014-Sep-16 23:31N 51°20' E 004°20'0 0.0
2014-Sep-16 22:31N 51°20' E 004°20'0 0.0
2014-Sep-16 21:31N 51°20' E 004°20'0 0.0
2014-Sep-16 20:33N 51°20' E 004°20'0 0.0
2014-Sep-16 19:27N 51°20' E 004°20'0 0.0
2014-Sep-16 18:27N 51°20' E 004°20'0 0.0
2014-Sep-16 17:30N 51°20' E 004°20'0 0.0
2014-Sep-16 16:33N 51°20' E 004°20'0 0.0
2014-Sep-16 15:33N 51°20' E 004°20'0 0.0
2014-Sep-16 14:33N 51°20' E 004°20'0 0.0
2014-Sep-16 13:30N 51°20' E 004°20'0 0.0
2014-Sep-16 12:33N 51°20' E 004°20'0 0.0
2014-Sep-16 11:30N 51°20' E 004°20'0 0.0
2014-Sep-16 10:30N 51°20' E 004°20'0 0.0
2014-Sep-16 09:33N 51°20' E 004°20'0 0.0
2014-Sep-16 08:33N 51°20' E 004°20'2 2.3
2014-Sep-16 07:34N 51°21' E 004°17'1 0.7
2014-Sep-16 06:33N 51°21' E 004°16'9 9.1
2014-Sep-16 05:34N 51°24' E 004°02'1212.0
2014-Sep-16 04:33N 51°23' E 003°43'9 8.9
2014-Sep-16 03:33N 51°28' E 003°31'1413.5
2014-Sep-16 02:33N 51°39' E 003°19'1010.2
2014-Sep-16 01:33N 51°49' E 003°16'1716.8
2014-Sep-16 00:32N 52°06' E 003°20'1616.7
2014-Sep-15 23:33N 52°22' E 003°25'1916.9
2014-Sep-15 22:27N 52°40' E 003°35'4916.6
2014-Sep-15 19:30N 53°17' E 004°28'1816.7
2014-Sep-15 18:24N 53°34' E 004°38'1817.1
2014-Sep-15 17:20N 53°51' E 004°48'1517.0
2014-Sep-15 16:28N 54°05' E 004°56'1314.3
2014-Sep-15 15:33N 54°17' E 005°05'11 8.6
2014-Sep-15 14:17N 54°27' E 005°14'26815.9
2014-Sep-14 21:28N 57°49' E 010°29'1715.4
2014-Sep-14 20:21N 57°41' E 010°59'1316.0
2014-Sep-14 19:33N 57°33' E 011°16'1615.9
2014-Sep-14 18:34N 57°19' E 011°32'1616.3
2014-Sep-14 17:33N 57°04' E 011°42'1616.1
2014-Sep-14 16:33N 56°49' E 011°53'1515.0
2014-Sep-14 15:33N 56°35' E 011°43'11714.2
2014-Sep-14 07:17N 54°40' E 010°58'1216.8
2014-Sep-14 06:33N 54°34' E 011°17'1616.4
2014-Sep-14 05:33N 54°27' E 011°42'1616.2
2014-Sep-14 04:33N 54°26' E 012°10'1515.2
2014-Sep-14 03:33N 54°40' E 012°22'1616.1
2014-Sep-14 02:33N 54°48' E 012°46'1616.1
2014-Sep-14 01:33N 54°53' E 013°13'12515.6
2014-Sep-13 17:33N 55°59' E 016°20'31116.3
2014-Sep-12 22:29N 59°37' E 023°17'1516.5
2014-Sep-12 21:33N 59°41' E 023°47'1716.8
2014-Sep-12 20:33N 59°45' E 024°19'1716.6
2014-Sep-12 19:33N 59°49' E 024°51'3316.1
2014-Sep-12 17:29N 59°56' E 025°55'1515.8
2014-Sep-12 16:33N 60°00' E 026°24'1615.5
2014-Sep-12 15:32N 59°60' E 026°56'99 8.6
2014-Sep-12 04:06N 59°52' E 030°12'0 0.0
2014-Sep-12 03:33N 59°52' E 030°12'0 0.0
2014-Sep-12 02:30N 59°52' E 030°12'0 0.0
2014-Sep-12 01:31N 59°52' E 030°12'0 0.0
2014-Sep-11 23:33N 59°52' E 030°12'0 0.0
2014-Sep-11 22:33N 59°52' E 030°12'0 0.0
2014-Sep-11 21:34N 59°52' E 030°12'0 0.0
2014-Sep-11 20:30N 59°52' E 030°12'0 0.0
2014-Sep-11 19:32N 59°52' E 030°12'0 0.0
2014-Sep-11 18:32N 59°52' E 030°12'0 0.0
2014-Sep-11 14:05N 59°52' E 030°12'0 0.0
2014-Sep-11 13:29N 59°52' E 030°12'0 0.0
2014-Sep-11 04:32N 59°52' E 030°12'0 0.0
2014-Sep-11 03:32N 59°52' E 030°12'0 0.0
2014-Sep-11 02:32N 59°52' E 030°12'0 0.0
2014-Sep-11 01:32N 59°52' E 030°12'0 0.0
2014-Sep-11 00:32N 59°52' E 030°12'0 0.0
2014-Sep-10 23:28N 59°52' E 030°12'0 0.0
2014-Sep-10 22:31N 59°52' E 030°12'0 0.0
2014-Sep-10 21:31N 59°52' E 030°12'0 0.0
2014-Sep-10 20:32N 59°52' E 030°12'0 0.0
2014-Sep-10 19:32N 59°52' E 030°12'0 0.0
2014-Sep-10 18:32N 59°52' E 030°12'0 0.0
2014-Sep-10 16:08N 59°52' E 030°12'94 9.4
2014-Sep-10 06:10N 59°58' E 027°05'1016.0
2014-Sep-10 05:33N 59°59' E 026°46'1716.8
2014-Sep-10 04:33N 59°56' E 026°13'3717.5
2014-Sep-10 02:26N 59°47' E 025°01'1517.0
2014-Sep-10 01:33N 59°44' E 024°32'1716.7
2014-Sep-10 00:33N 59°38' E 024°00'1716.7
2014-Sep-09 23:33N 59°34' E 023°28'30416.7
2014-Sep-09 05:25N 56°02' E 016°41'3518.9
2014-Sep-09 03:33N 55°44' E 015°46'1817.5
2014-Sep-09 02:33N 55°35' E 015°20'1717.7
2014-Sep-09 01:33N 55°28' E 014°52'1817.7
2014-Sep-09 00:33N 55°16' E 014°29'1817.8
2014-Sep-08 23:33N 55°02' E 014°09'1817.9
2014-Sep-08 22:33N 54°55' E 013°40'1817.8
2014-Sep-08 21:33N 54°50' E 013°11'1818.0
2014-Sep-08 20:33N 54°44' E 012°41'1717.2
2014-Sep-08 19:33N 54°33' E 012°18'1514.7
2014-Sep-08 18:33N 54°25' E 011°58'13312.9
2014-Sep-08 08:11N 56°38' E 011°44'1016.1
2014-Sep-08 07:33N 56°47' E 011°50'1717.5
2014-Sep-08 06:33N 57°04' E 011°40'1818.2
2014-Sep-08 05:33N 57°21' E 011°29'1918.7
2014-Sep-08 04:33N 57°36' E 011°07'1918.9
2014-Sep-08 03:33N 57°47' E 010°38'2019.9
2014-Sep-08 02:33N 57°44' E 010°01'14818.3
2014-Sep-07 18:28N 55°45' E 007°21'1719.2
2014-Sep-07 17:33N 55°28' E 007°19'4519.3
2014-Sep-07 15:14N 54°43' E 007°21'1319.4
2014-Sep-07 14:33N 54°30' E 007°22'1918.6
2014-Sep-07 13:33N 54°11' E 007°29'2119.1
2014-Sep-07 12:27N 53°53' E 007°47'1516.5
2014-Sep-07 11:33N 53°47' E 008°09'1616.1
2014-Sep-07 10:33N 53°36' E 008°30'2 2.4
2014-Sep-07 09:33N 53°34' E 008°32'0 0.0
2014-Sep-07 08:31N 53°34' E 008°32'0 0.0
2014-Sep-07 07:32N 53°34' E 008°32'  
Track history (hours):
 
Tides and Currents Weather Stations Pressure Air Temp Water Temp Dewpoint Dewpoint Depression Visibility Wind Speed Wind Dir Waves Ship Positions

MSC Jordan

Last reported at 2014-Sep-17 07:32 UTC. Time now 2014-Sep-17 07:36 UTC.
Position N 51°20' E 004°20'.

Length 237 m; draft 8.3 m.

Type: Ship. MMSI: 355194000.

Date/timePositionNaut miles runAvg speedWind from/ knotsBaromVisibWave heightAir tempDewpointWater temp
2014-Sep-17 07:32N 51°20' E 004°20'0 0.0
2014-Sep-17 06:32N 51°20' E 004°20'0 0.0
2014-Sep-17 05:32N 51°20' E 004°20'0 0.0
2014-Sep-17 04:33N 51°20' E 004°20'0 0.0
2014-Sep-17 03:31N 51°20' E 004°20'0 0.0
2014-Sep-17 02:31N 51°20' E 004°20'0 0.0
2014-Sep-17 01:31N 51°20' E 004°20'0 0.0
2014-Sep-17 00:28N 51°20' E 004°20'0 0.0
2014-Sep-16 23:31N 51°20' E 004°20'0 0.0
2014-Sep-16 22:31N 51°20' E 004°20'0 0.0
2014-Sep-16 21:31N 51°20' E 004°20'0 0.0
2014-Sep-16 20:33N 51°20' E 004°20'0 0.0
2014-Sep-16 19:27N 51°20' E 004°20'0 0.0
2014-Sep-16 18:27N 51°20' E 004°20'0 0.0
2014-Sep-16 17:30N 51°20' E 004°20'0 0.0
2014-Sep-16 16:33N 51°20' E 004°20'0 0.0
2014-Sep-16 15:33N 51°20' E 004°20'0 0.0
2014-Sep-16 14:33N 51°20' E 004°20'0 0.0
2014-Sep-16 13:30N 51°20' E 004°20'0 0.0
2014-Sep-16 12:33N 51°20' E 004°20'0 0.0
2014-Sep-16 11:30N 51°20' E 004°20'0 0.0
2014-Sep-16 10:30N 51°20' E 004°20'0 0.0
2014-Sep-16 09:33N 51°20' E 004°20'0 0.0
2014-Sep-16 08:33N 51°20' E 004°20'2 2.3
2014-Sep-16 07:34N 51°21' E 004°17'1 0.7
2014-Sep-16 06:33N 51°21' E 004°16'9 9.1
2014-Sep-16 05:34N 51°24' E 004°02'1212.0
2014-Sep-16 04:33N 51°23' E 003°43'9 8.9
2014-Sep-16 03:33N 51°28' E 003°31'1413.5
2014-Sep-16 02:33N 51°39' E 003°19'1010.2
2014-Sep-16 01:33N 51°49' E 003°16'1716.8
2014-Sep-16 00:32N 52°06' E 003°20'1616.7
2014-Sep-15 23:33N 52°22' E 003°25'1916.9
2014-Sep-15 22:27N 52°40' E 003°35'4916.6
2014-Sep-15 19:30N 53°17' E 004°28'1816.7
2014-Sep-15 18:24N 53°34' E 004°38'1817.1
2014-Sep-15 17:20N 53°51' E 004°48'1517.0
2014-Sep-15 16:28N 54°05' E 004°56'1314.3
2014-Sep-15 15:33N 54°17' E 005°05'11 8.6
2014-Sep-15 14:17N 54°27' E 005°14'26815.9
2014-Sep-14 21:28N 57°49' E 010°29'1715.4
2014-Sep-14 20:21N 57°41' E 010°59'1316.0
2014-Sep-14 19:33N 57°33' E 011°16'1615.9
2014-Sep-14 18:34N 57°19' E 011°32'1616.3
2014-Sep-14 17:33N 57°04' E 011°42'1616.1
2014-Sep-14 16:33N 56°49' E 011°53'1515.0
2014-Sep-14 15:33N 56°35' E 011°43'11714.2
2014-Sep-14 07:17N 54°40' E 010°58'1216.8
2014-Sep-14 06:33N 54°34' E 011°17'1616.4
2014-Sep-14 05:33N 54°27' E 011°42'1616.2
2014-Sep-14 04:33N 54°26' E 012°10'1515.2
2014-Sep-14 03:33N 54°40' E 012°22'1616.1
2014-Sep-14 02:33N 54°48' E 012°46'1616.1
2014-Sep-14 01:33N 54°53' E 013°13'12515.6
2014-Sep-13 17:33N 55°59' E 016°20'31116.3
2014-Sep-12 22:29N 59°37' E 023°17'1516.5
2014-Sep-12 21:33N 59°41' E 023°47'1716.8
2014-Sep-12 20:33N 59°45' E 024°19'1716.6
2014-Sep-12 19:33N 59°49' E 024°51'3316.1
2014-Sep-12 17:29N 59°56' E 025°55'1515.8
2014-Sep-12 16:33N 60°00' E 026°24'1615.5
2014-Sep-12 15:32N 59°60' E 026°56'99 8.6
2014-Sep-12 04:06N 59°52' E 030°12'0 0.0
2014-Sep-12 03:33N 59°52' E 030°12'0 0.0
2014-Sep-12 02:30N 59°52' E 030°12'0 0.0
2014-Sep-12 01:31N 59°52' E 030°12'0 0.0
2014-Sep-11 23:33N 59°52' E 030°12'0 0.0
2014-Sep-11 22:33N 59°52' E 030°12'0 0.0
2014-Sep-11 21:34N 59°52' E 030°12'0 0.0
2014-Sep-11 20:30N 59°52' E 030°12'0 0.0
2014-Sep-11 19:32N 59°52' E 030°12'0 0.0
2014-Sep-11 18:32N 59°52' E 030°12'0 0.0
2014-Sep-11 14:05N 59°52' E 030°12'0 0.0
2014-Sep-11 13:29N 59°52' E 030°12'0 0.0
2014-Sep-11 04:32N 59°52' E 030°12'0 0.0
2014-Sep-11 03:32N 59°52' E 030°12'0 0.0
2014-Sep-11 02:32N 59°52' E 030°12'0 0.0
2014-Sep-11 01:32N 59°52' E 030°12'0 0.0
2014-Sep-11 00:32N 59°52' E 030°12'0 0.0
2014-Sep-10 23:28N 59°52' E 030°12'0 0.0
2014-Sep-10 22:31N 59°52' E 030°12'0 0.0
2014-Sep-10 21:31N 59°52' E 030°12'0 0.0
2014-Sep-10 20:32N 59°52' E 030°12'0 0.0
2014-Sep-10 19:32N 59°52' E 030°12'0 0.0
2014-Sep-10 18:32N 59°52' E 030°12'0 0.0
2014-Sep-10 16:08N 59°52' E 030°12'94 9.4
2014-Sep-10 06:10N 59°58' E 027°05'1016.0
2014-Sep-10 05:33N 59°59' E 026°46'1716.8
2014-Sep-10 04:33N 59°56' E 026°13'3717.5
2014-Sep-10 02:26N 59°47' E 025°01'1517.0
2014-Sep-10 01:33N 59°44' E 024°32'1716.7
2014-Sep-10 00:33N 59°38' E 024°00'1716.7
2014-Sep-09 23:33N 59°34' E 023°28'30416.7
2014-Sep-09 05:25N 56°02' E 016°41'3518.9
2014-Sep-09 03:33N 55°44' E 015°46'1817.5
2014-Sep-09 02:33N 55°35' E 015°20'1717.7
2014-Sep-09 01:33N 55°28' E 014°52'1817.7
2014-Sep-09 00:33N 55°16' E 014°29'1817.8
2014-Sep-08 23:33N 55°02' E 014°09'1817.9
2014-Sep-08 22:33N 54°55' E 013°40'1817.8
2014-Sep-08 21:33N 54°50' E 013°11'1818.0
2014-Sep-08 20:33N 54°44' E 012°41'1717.2
2014-Sep-08 19:33N 54°33' E 012°18'1514.7
2014-Sep-08 18:33N 54°25' E 011°58'13312.9
2014-Sep-08 08:11N 56°38' E 011°44'1016.1
2014-Sep-08 07:33N 56°47' E 011°50'1717.5
2014-Sep-08 06:33N 57°04' E 011°40'1818.2
2014-Sep-08 05:33N 57°21' E 011°29'1918.7
2014-Sep-08 04:33N 57°36' E 011°07'1918.9
2014-Sep-08 03:33N 57°47' E 010°38'2019.9
2014-Sep-08 02:33N 57°44' E 010°01'14818.3
2014-Sep-07 18:28N 55°45' E 007°21'1719.2
2014-Sep-07 17:33N 55°28' E 007°19'4519.3
2014-Sep-07 15:14N 54°43' E 007°21'1319.4
2014-Sep-07 14:33N 54°30' E 007°22'1918.6
2014-Sep-07 13:33N 54°11' E 007°29'2119.1
2014-Sep-07 12:27N 53°53' E 007°47'1516.5
2014-Sep-07 11:33N 53°47' E 008°09'1616.1
2014-Sep-07 10:33N 53°36' E 008°30'2 2.4
2014-Sep-07 09:33N 53°34' E 008°32'0 0.0
2014-Sep-07 08:31N 53°34' E 008°32'0 0.0
2014-Sep-07 07:32N 53°34' E 008°32'  

Dump ship's entire track history